| time (UTC) | temp F | wind direction | speed MPH | gust MPH | rain 1hr in | rain 24hr in | rain mn in | humidity % | barometer mb |
| 20260505182851 | 73 | 238 | 20.0 | 26.0 | 0.00 | 0.00 | 0.00 | 57 | 1002.8 |
| 20260505182348 | 73 | 253 | 9.0 | 13.0 | 0.00 | 0.00 | 0.00 | 57 | 1003.0 |
| 20260505181845 | 74 | 198 | 13.0 | 15.0 | 0.00 | 0.00 | 0.00 | 56 | 1002.8 |
| 20260505181342 | 74 | 179 | 18.0 | 25.0 | 0.00 | 0.00 | 0.00 | 55 | 1002.8 |
| 20260505180839 | 74 | 226 | 12.0 | 14.0 | 0.00 | 0.00 | 0.00 | 55 | 1002.9 |
| 20260505180335 | 74 | 188 | 5.0 | 7.0 | 0.00 | 0.00 | 0.00 | 59 | 1002.8 |
| 20260505175832 | 74 | 243 | 18.0 | 24.0 | 0.00 | 0.00 | 0.00 | 56 | 1003.1 |
| 20260505175328 | 74 | 217 | 11.0 | 13.0 | 0.00 | 0.00 | 0.00 | 58 | 1003.2 |
| 20260505174825 | 73 | 222 | 10.0 | 13.0 | 0.00 | 0.00 | 0.00 | 57 | 1003.3 |
| 20260505174323 | 73 | 214 | 15.0 | 18.0 | 0.00 | 0.00 | 0.00 | 56 | 1003.5 |
| 20260505173818 | 73 | 223 | 6.0 | 10.0 | 0.00 | 0.00 | 0.00 | 58 | 1003.2 |
| 20260505173315 | 73 | 154 | 11.0 | 15.0 | 0.00 | 0.00 | 0.00 | 58 | 1003.6 |
| 20260505172813 | 73 | 208 | 16.0 | 20.0 | 0.00 | 0.00 | 0.00 | 55 | 1003.5 |
| 20260505172310 | 73 | 211 | 9.0 | 13.0 | 0.00 | 0.00 | 0.00 | 56 | 1003.7 |
| 20260505171804 | 72 | 232 | 5.0 | 8.0 | 0.00 | 0.00 | 0.00 | 57 | 1003.8 |
| 20260505171301 | 72 | 234 | 13.0 | 18.0 | 0.00 | 0.00 | 0.00 | 57 | 1004.0 |
| 20260505170757 | 72 | 252 | 15.0 | 20.0 | 0.00 | 0.00 | 0.00 | 57 | 1004.4 |
| 20260505170255 | 71 | 245 | 12.0 | 18.0 | 0.00 | 0.00 | 0.00 | 58 | 1004.1 |
| 20260505165750 | 71 | 191 | 9.0 | 10.0 | 0.00 | 0.00 | 0.00 | 58 | 1004.5 |
| 20260505165246 | 71 | 167 | 16.0 | 21.0 | 0.00 | 0.00 | 0.00 | 60 | 1004.0 |
| 20260505164741 | 71 | 198 | 16.0 | 21.0 | 0.00 | 0.00 | 0.00 | 57 | 1004.1 |
| 20260505164239 | 71 | 202 | 14.0 | 17.0 | 0.00 | 0.00 | 0.00 | 59 | 1004.5 |
| 20260505163737 | 70 | 191 | 11.0 | 15.0 | 0.00 | 0.00 | 0.00 | 59 | 1004.5 |
| 20260505163236 | 71 | 217 | 9.0 | 11.0 | 0.00 | 0.00 | 0.00 | 59 | 1004.5 |
| 20260505162732 | 70 | 239 | 11.0 | 13.0 | 0.00 | 0.00 | 0.00 | 59 | 1004.6 |
| 20260505162229 | 69 | 209 | 6.0 | 11.0 | 0.00 | 0.00 | 0.00 | 60 | 1004.6 |
| 20260505161726 | 69 | 179 | 5.0 | 7.0 | 0.00 | 0.00 | 0.00 | 61 | 1004.8 |
| 20260505161224 | 69 | 192 | 3.0 | 7.0 | 0.00 | 0.00 | 0.00 | 63 | 1004.8 |
| 20260505160721 | 69 | 199 | 11.0 | 14.0 | 0.00 | 0.00 | 0.00 | 61 | 1004.8 |
| 20260505160219 | 67 | 215 | 9.0 | 14.0 | 0.00 | 0.00 | 0.00 | 61 | 1005.1 |
| 20260505153158 | 66 | 221 | 9.0 | 13.0 | 0.00 | 0.00 | 0.00 | 63 | 1005.7 |
| 20260505152654 | 66 | 218 | 13.0 | 16.0 | 0.00 | 0.00 | 0.00 | 64 | 1005.8 |
| 20260505152151 | 66 | 231 | 11.0 | 14.0 | 0.00 | 0.00 | 0.00 | 64 | 1005.8 |
| 20260505151646 | 65 | 244 | 8.0 | 11.0 | 0.00 | 0.00 | 0.00 | 64 | 1005.8 |
| 20260505151144 | 66 | 212 | 10.0 | 11.0 | 0.00 | 0.00 | 0.00 | 64 | 1005.8 |
| 20260505150639 | 65 | 184 | 10.0 | 14.0 | 0.00 | 0.00 | 0.00 | 65 | 1005.8 |
| 20260505150137 | 64 | 197 | 7.0 | 9.0 | 0.00 | 0.00 | 0.00 | 64 | 1005.7 |
| 20260505140605 | 60 | 154 | 5.0 | 7.0 | 0.00 | 0.00 | 0.00 | 71 | 1006.2 |
| 20260505125018 | 54 | 201 | 7.0 | 9.0 | 0.00 | 0.00 | 0.00 | 77 | 1006.3 |
| 20260505124515 | 54 | 241 | 7.0 | 8.0 | 0.00 | 0.00 | 0.00 | 77 | 1006.4 |
| 20260505124012 | 54 | 197 | 7.0 | 9.0 | 0.00 | 0.00 | 0.00 | 77 | 1006.6 |
| 20260505123508 | 55 | 214 | 9.0 | 9.0 | 0.00 | 0.00 | 0.00 | 76 | 1006.4 |
| 20260505123004 | 55 | 266 | 4.0 | 7.0 | 0.00 | 0.00 | 0.00 | 77 | 1006.4 |
| 20260505122501 | 54 | 249 | 5.0 | 8.0 | 0.00 | 0.00 | 0.00 | 78 | 1006.4 |
| 20260505121958 | 54 | 244 | 7.0 | 8.0 | 0.00 | 0.00 | 0.00 | 80 | 1006.5 |
| 20260505121455 | 53 | 219 | 6.0 | 7.0 | 0.00 | 0.00 | 0.00 | 79 | 1006.8 |
| 20260505120951 | 53 | 234 | 5.0 | 7.0 | 0.00 | 0.00 | 0.00 | 81 | 1006.3 |
| 20260505120447 | 53 | 229 | 7.0 | 9.0 | 0.00 | 0.00 | 0.00 | 81 | 1006.5 |
| 20260505115946 | 53 | 219 | 9.0 | 10.0 | 0.00 | 0.00 | 0.00 | 80 | 1006.7 |
| 20260505115443 | 52 | 199 | 5.0 | 10.0 | 0.00 | 0.00 | 0.00 | 81 | 1006.4 |
| 20260505114942 | 52 | 248 | 4.0 | 5.0 | 0.00 | 0.00 | 0.00 | 82 | 1006.7 |
| 20260505114437 | 51 | 223 | 6.0 | 8.0 | 0.00 | 0.00 | 0.00 | 84 | 1006.5 |
| 20260505113934 | 50 | 199 | 5.0 | 7.0 | 0.00 | 0.00 | 0.00 | 84 | 1006.7 |
| 20260505113430 | 50 | 196 | 4.0 | 7.0 | 0.00 | 0.00 | 0.00 | 83 | 1006.4 |
| 20260505112926 | 50 | 206 | 5.0 | 7.0 | 0.00 | 0.00 | 0.00 | 84 | 1006.5 |
| 20260505112424 | 50 | 195 | 3.0 | 3.0 | 0.00 | 0.00 | 0.00 | 85 | 1006.8 |
| 20260505111920 | 49 | 212 | 0.0 | 1.0 | 0.00 | 0.00 | 0.00 | 85 | 1006.7 |
| 20260505111415 | 49 | 195 | 3.0 | 3.0 | 0.00 | 0.00 | 0.00 | 86 | 1006.7 |
| 20260505110912 | 48 | 217 | 1.0 | 2.0 | 0.00 | 0.00 | 0.00 | 86 | 1006.4 |
| 20260505110409 | 48 | 205 | 3.0 | 3.0 | 0.00 | 0.00 | 0.00 | 86 | 1006.7 |
| 20260505101839 | 46 | 196 | 2.0 | 2.0 | 0.00 | 0.00 | 0.00 | 88 | 1006.5 |
| 20260505101334 | 46 | 225 | 2.0 | 2.0 | 0.00 | 0.00 | 0.00 | 89 | 1006.6 |
| 20260505100830 | 46 | 211 | 2.0 | 3.0 | 0.00 | 0.00 | 0.00 | 89 | 1006.7 |
| 20260505100327 | 46 | 242 | 3.0 | 3.0 | 0.00 | 0.00 | 0.00 | 89 | 1006.4 |
| 20260505095822 | 46 | 217 | 2.0 | 2.0 | 0.00 | 0.00 | 0.00 | 89 | 1006.4 |
| 20260505095321 | 45 | 185 | 2.0 | 3.0 | 0.00 | 0.00 | 0.00 | 90 | 1006.4 |
| 20260505094816 | 45 | 209 | 1.0 | 2.0 | 0.00 | 0.00 | 0.00 | 90 | 1006.5 |
| 20260505094313 | 46 | 209 | 3.0 | 3.0 | 0.00 | 0.00 | 0.00 | 90 | 1006.2 |
| 20260505093809 | 46 | 196 | 3.0 | 3.0 | 0.00 | 0.00 | 0.00 | 89 | 1006.6 |
| 20260505093307 | 46 | 225 | 3.0 | 5.0 | 0.00 | 0.00 | 0.00 | 89 | 1006.4 |
| 20260505092803 | 45 | 209 | 2.0 | 3.0 | 0.00 | 0.00 | 0.00 | 90 | 1006.3 |
| 20260505092304 | 45 | 195 | 0.0 | 0.0 | 0.00 | 0.00 | 0.00 | 91 | 1006.2 |
| 20260505091759 | 45 | 190 | 1.0 | 1.0 | 0.00 | 0.00 | 0.00 | 90 | 1006.3 |
| 20260505091256 | 45 | 212 | 1.0 | 2.0 | 0.00 | 0.00 | 0.00 | 90 | 1006.3 |
| 20260505090754 | 45 | 241 | 3.0 | 3.0 | 0.00 | 0.00 | 0.00 | 91 | 1006.3 |
| 20260505090252 | 45 | 201 | 3.0 | 3.0 | 0.00 | 0.00 | 0.00 | 91 | 1006.3 |
| 20260505085749 | 45 | 217 | 3.0 | 3.0 | 0.00 | 0.00 | 0.00 | 91 | 1006.7 |
| 20260505085247 | 45 | 241 | 1.0 | 1.0 | 0.00 | 0.00 | 0.00 | 91 | 1006.3 |
| 20260505084744 | 45 | 188 | 2.0 | 2.0 | 0.00 | 0.00 | 0.00 | 91 | 1006.3 |
| 20260505084243 | 45 | 223 | 2.0 | 2.0 | 0.00 | 0.00 | 0.00 | 91 | 1006.6 |
| 20260505083739 | 45 | 203 | 1.0 | 2.0 | 0.00 | 0.00 | 0.00 | 91 | 1006.6 |
| 20260505083236 | 45 | 234 | 1.0 | 2.0 | 0.00 | 0.00 | 0.00 | 91 | 1006.6 |
| 20260505082732 | 45 | 188 | 1.0 | 1.0 | 0.00 | 0.00 | 0.00 | 91 | 1006.7 |
| 20260505082230 | 45 | 213 | 2.0 | 2.0 | 0.00 | 0.00 | 0.00 | 91 | 1006.9 |
| 20260505081725 | 45 | 193 | 1.0 | 2.0 | 0.00 | 0.00 | 0.00 | 90 | 1006.6 |
| 20260505081223 | 45 | 173 | 1.0 | 1.0 | 0.00 | 0.00 | 0.00 | 91 | 1006.6 |
| 20260505080720 | 46 | 203 | 1.0 | 2.0 | 0.00 | 0.00 | 0.00 | 90 | 1006.7 |
| 20260505080215 | 46 | 194 | 2.0 | 2.0 | 0.00 | 0.00 | 0.00 | 90 | 1006.7 |
| 20260505075711 | 46 | 263 | 1.0 | 1.0 | 0.00 | 0.00 | 0.00 | 90 | 1006.5 |
| 20260505075209 | 46 | 177 | 1.0 | 1.0 | 0.00 | 0.00 | 0.00 | 89 | 1006.5 |
| 20260505074706 | 46 | 164 | 1.0 | 1.0 | 0.00 | 0.00 | 0.00 | 89 | 1006.3 |
| 20260505074203 | 46 | 200 | 0.0 | 1.0 | 0.00 | 0.00 | 0.00 | 89 | 1006.5 |
| 20260505073700 | 46 | 183 | 1.0 | 1.0 | 0.00 | 0.00 | 0.00 | 89 | 1006.6 |
| 20260505073158 | 46 | 192 | 1.0 | 2.0 | 0.00 | 0.00 | 0.00 | 89 | 1006.6 |
| 20260505072654 | 46 | 177 | 1.0 | 2.0 | 0.00 | 0.00 | 0.00 | 89 | 1006.6 |
| 20260505072151 | 46 | 204 | 2.0 | 2.0 | 0.00 | 0.00 | 0.00 | 89 | 1006.5 |
| 20260505071646 | 46 | 181 | 1.0 | 1.0 | 0.00 | 0.00 | 0.00 | 90 | 1006.6 |
| 20260505071144 | 45 | 201 | 2.0 | 2.0 | 0.00 | 0.00 | 0.00 | 91 | 1006.5 |
| 20260505070641 | 45 | 238 | 0.0 | 0.0 | 0.00 | 0.00 | 0.00 | 90 | 1006.3 |
| 20260505070137 | 46 | 173 | 0.0 | 0.0 | 0.00 | 0.00 | 0.00 | 89 | 1006.4 |
| 20260505065633 | 45 | 183 | 0.0 | 0.0 | 0.00 | 0.00 | 0.00 | 90 | 1006.5 |
| 20260505065130 | 45 | 172 | 0.0 | 0.0 | 0.00 | 0.00 | 0.00 | 90 | 1006.4 |
| 20260505064627 | 45 | 150 | 0.0 | 0.0 | 0.00 | 0.00 | 0.00 | 91 | 1006.5 |
| 20260505064125 | 45 | 156 | 0.0 | 0.0 | 0.00 | 0.00 | 0.00 | 89 | 1006.6 |
| 20260505063622 | 45 | 119 | 0.0 | 0.0 | 0.00 | 0.00 | 0.00 | 90 | 1006.5 |
| 20260505063118 | 46 | 158 | 0.0 | 0.0 | 0.00 | 0.00 | 0.00 | 89 | 1006.6 |
| 20260505062615 | 46 | 134 | 0.0 | 0.0 | 0.00 | 0.00 | 0.00 | 89 | 1006.6 |
| 20260505062112 | 46 | 166 | 0.0 | 0.0 | 0.00 | 0.00 | 0.00 | 88 | 1006.7 |
| 20260505061609 | 46 | 201 | 1.0 | 1.0 | 0.00 | 0.00 | 0.00 | 88 | 1007.0 |
| 20260505061108 | 46 | 192 | 0.0 | 0.0 | 0.00 | 0.00 | 0.00 | 88 | 1006.9 |
| 20260505060604 | 47 | 201 | 0.0 | 0.0 | 0.00 | 0.00 | 0.00 | 86 | 1006.8 |
| 20260505055556 | 48 | 149 | 0.0 | 0.0 | 0.00 | 0.00 | 0.00 | 84 | 1006.7 |
| 20260505055053 | 48 | 125 | 0.0 | 0.0 | 0.00 | 0.00 | 0.00 | 83 | 1006.6 |
| 20260505054550 | 49 | 137 | 0.0 | 0.0 | 0.00 | 0.00 | 0.00 | 83 | 1006.6 |
| 20260505054049 | 49 | 155 | 0.0 | 1.0 | 0.00 | 0.00 | 0.00 | 82 | 1006.9 |
| 20260505053545 | 49 | 184 | 1.0 | 2.0 | 0.00 | 0.00 | 0.00 | 82 | 1006.7 |
| 20260505053042 | 48 | 140 | 0.0 | 0.0 | 0.00 | 0.00 | 0.00 | 82 | 1006.6 |
| 20260505052539 | 49 | 175 | 0.0 | 0.0 | 0.00 | 0.00 | 0.00 | 82 | 1006.5 |
| 20260505052037 | 48 | 134 | 0.0 | 0.0 | 0.00 | 0.00 | 0.00 | 82 | 1006.5 |
| 20260505051533 | 49 | 103 | 1.0 | 1.0 | 0.00 | 0.00 | 0.00 | 82 | 1006.6 |
| 20260505051031 | 49 | 180 | 0.0 | 0.0 | 0.00 | 0.00 | 0.00 | 81 | 1006.5 |
| 20260505050529 | 50 | 165 | 1.0 | 1.0 | 0.00 | 0.00 | 0.00 | 80 | 1006.5 |
| 20260505041457 | 49 | 59 | 3.0 | 3.0 | 0.00 | 0.00 | 0.00 | 83 | 1006.6 |
| 20260505040954 | 48 | 73 | 2.0 | 2.0 | 0.00 | 0.00 | 0.00 | 85 | 1006.5 |
| 20260505040451 | 48 | 73 | 2.0 | 2.0 | 0.00 | 0.00 | 0.00 | 85 | 1006.6 |
| 20260505035948 | 49 | 64 | 3.0 | 3.0 | 0.00 | 0.02 | 0.02 | 84 | 1006.5 |
| 20260505035444 | 50 | 57 | 2.0 | 2.0 | 0.00 | 0.02 | 0.02 | 80 | 1006.6 |
| 20260505034942 | 49 | 88 | 2.0 | 3.0 | 0.00 | 0.02 | 0.02 | 83 | 1006.3 |
| 20260505034438 | 50 | 59 | 2.0 | 2.0 | 0.00 | 0.02 | 0.02 | 82 | 1006.6 |
| 20260505033935 | 52 | 109 | 2.0 | 2.0 | 0.00 | 0.02 | 0.02 | 77 | 1006.4 |
| 20260505033432 | 52 | 111 | 2.0 | 2.0 | 0.00 | 0.02 | 0.02 | 76 | 1006.4 |
| 20260505032930 | 52 | 94 | 3.0 | 3.0 | 0.00 | 0.02 | 0.02 | 77 | 1006.5 |
| 20260505032427 | 52 | 108 | 2.0 | 2.0 | 0.00 | 0.02 | 0.02 | 77 | 1006.5 |
| 20260505031923 | 52 | 94 | 1.0 | 2.0 | 0.00 | 0.02 | 0.02 | 77 | 1006.4 |
| 20260505031420 | 52 | 104 | 3.0 | 3.0 | 0.00 | 0.02 | 0.02 | 77 | 1006.3 |
| 20260505030917 | 52 | 119 | 3.0 | 5.0 | 0.00 | 0.02 | 0.02 | 78 | 1006.6 |
| 20260505030413 | 51 | 106 | 3.0 | 5.0 | 0.00 | 0.02 | 0.02 | 79 | 1006.8 |
| 20260505025909 | 50 | 94 | 2.0 | 2.0 | 0.00 | 0.02 | 0.02 | 82 | 1006.6 |
| 20260505025406 | 51 | 59 | 3.0 | 3.0 | 0.00 | 0.02 | 0.02 | 80 | 1006.6 |
| 20260505024905 | 52 | 90 | 2.0 | 2.0 | 0.00 | 0.02 | 0.02 | 78 | 1006.5 |
| 20260505024402 | 52 | 88 | 2.0 | 2.0 | 0.00 | 0.02 | 0.02 | 77 | 1006.7 |
| 20260505023859 | 52 | 115 | 2.0 | 2.0 | 0.00 | 0.02 | 0.02 | 78 | 1006.8 |
| 20260505023356 | 53 | 100 | 2.0 | 2.0 | 0.00 | 0.02 | 0.02 | 77 | 1006.8 |
| 20260505022853 | 52 | 140 | 4.0 | 5.0 | 0.00 | 0.02 | 0.02 | 77 | 1006.7 |
| 20260505022350 | 50 | 107 | 3.0 | 3.0 | 0.00 | 0.02 | 0.02 | 80 | 1006.8 |
| 20260505021848 | 52 | 63 | 3.0 | 3.0 | 0.00 | 0.02 | 0.02 | 78 | 1006.7 |
| 20260505021344 | 50 | 107 | 1.0 | 1.0 | 0.00 | 0.02 | 0.02 | 82 | 1006.5 |
| 20260505020840 | 50 | 97 | 1.0 | 1.0 | 0.00 | 0.02 | 0.02 | 85 | 1006.8 |
| 20260505020335 | 51 | 70 | 1.0 | 2.0 | 0.00 | 0.02 | 0.02 | 81 | 1006.8 |
| 20260505015832 | 50 | 90 | 1.0 | 1.0 | 0.00 | 0.02 | 0.02 | 84 | 1006.8 |
| 20260505015330 | 49 | 96 | 0.0 | 0.0 | 0.00 | 0.02 | 0.02 | 84 | 1006.8 |
| 20260505014827 | 48 | 87 | 0.0 | 0.0 | 0.00 | 0.02 | 0.02 | 90 | 1006.8 |
| 20260505014324 | 50 | 74 | 1.0 | 1.0 | 0.00 | 0.02 | 0.02 | 87 | 1006.5 |
| 20260505013820 | 51 | 75 | 3.0 | 3.0 | 0.00 | 0.02 | 0.02 | 82 | 1006.5 |
| 20260505013318 | 51 | 67 | 2.0 | 2.0 | 0.00 | 0.02 | 0.02 | 82 | 1006.7 |
| 20260505012816 | 50 | 103 | 2.0 | 2.0 | 0.00 | 0.02 | 0.02 | 82 | 1006.4 |
| 20260505012313 | 50 | 94 | 1.0 | 1.0 | 0.00 | 0.02 | 0.02 | 84 | 1006.3 |
| 20260505011809 | 50 | 85 | 0.0 | 0.0 | 0.00 | 0.02 | 0.02 | 83 | 1006.2 |
| 20260505011306 | 50 | 76 | 0.0 | 0.0 | 0.00 | 0.02 | 0.02 | 82 | 1006.4 |
| 20260505010802 | 50 | 83 | 0.0 | 0.0 | 0.00 | 0.02 | 0.02 | 83 | 1006.2 |
| 20260505010258 | 52 | 69 | 1.0 | 2.0 | 0.00 | 0.02 | 0.02 | 81 | 1006.2 |
| 20260505005754 | 51 | 107 | 0.0 | 0.0 | 0.00 | 0.02 | 0.02 | 79 | 1006.2 |
| 20260505005252 | 50 | 121 | 1.0 | 1.0 | 0.00 | 0.02 | 0.02 | 84 | 1006.2 |
| 20260505004749 | 49 | 73 | 0.0 | 1.0 | 0.00 | 0.02 | 0.02 | 85 | 1006.0 |
| 20260505004245 | 50 | 68 | 1.0 | 1.0 | 0.00 | 0.02 | 0.02 | 84 | 1006.2 |
| 20260505003742 | 51 | 68 | 3.0 | 3.0 | 0.00 | 0.02 | 0.02 | 82 | 1006.0 |
| 20260505003240 | 51 | 96 | 0.0 | 0.0 | 0.00 | 0.02 | 0.02 | 80 | 1006.0 |
| 20260505002736 | 51 | 106 | 0.0 | 0.0 | 0.00 | 0.02 | 0.02 | 81 | 1005.8 |
| 20260505002234 | 50 | 80 | 0.0 | 0.0 | 0.00 | 0.02 | 0.02 | 82 | 1005.6 |
| 20260505001731 | 50 | 84 | 2.0 | 2.0 | 0.00 | 0.02 | 0.02 | 83 | 1005.5 |
| 20260505001229 | 51 | 74 | 1.0 | 1.0 | 0.00 | 0.02 | 0.02 | 80 | 1005.7 |
| 20260505000725 | 49 | 75 | 0.0 | 1.0 | 0.00 | 0.02 | 0.02 | 84 | 1005.5 |
| 20260505000223 | 51 | 71 | 2.0 | 2.0 | 0.00 | 0.02 | 0.02 | 81 | 1005.5 |
| 20260504235719 | 51 | 104 | 0.0 | 0.0 | 0.00 | 0.02 | 0.02 | 80 | 1005.6 |
| 20260504235215 | 52 | 105 | 1.0 | 1.0 | 0.00 | 0.02 | 0.02 | 79 | 1005.5 |
| 20260504234713 | 52 | 94 | 0.0 | 0.0 | 0.00 | 0.02 | 0.02 | 79 | 1005.6 |
| 20260504234210 | 52 | 103 | 0.0 | 0.0 | 0.00 | 0.02 | 0.02 | 79 | 1005.3 |
| 20260504233706 | 52 | 83 | 0.0 | 0.0 | 0.00 | 0.02 | 0.02 | 80 | 1005.1 |
| 20260504233202 | 53 | 100 | 0.0 | 0.0 | 0.00 | 0.02 | 0.02 | 78 | 1005.2 |
| 20260504232700 | 54 | 112 | 0.0 | 0.0 | 0.00 | 0.02 | 0.02 | 76 | 1005.1 |
| 20260504232156 | 54 | 125 | 0.0 | 0.0 | 0.00 | 0.02 | 0.02 | 75 | 1005.3 |
| 20260504231653 | 54 | 140 | 0.0 | 0.0 | 0.00 | 0.02 | 0.02 | 75 | 1005.2 |
| 20260504231150 | 54 | 126 | 0.0 | 0.0 | 0.00 | 0.02 | 0.02 | 75 | 1005.0 |
| 20260504230646 | 54 | 165 | 0.0 | 0.0 | 0.00 | 0.02 | 0.02 | 73 | 1004.9 |
| 20260504230145 | 54 | 189 | 0.0 | 0.0 | 0.00 | 0.02 | 0.02 | 73 | 1005.0 |
| 20260504225643 | 55 | 213 | 2.0 | 2.0 | 0.00 | 0.02 | 0.02 | 73 | 1005.1 |
| 20260504225138 | 55 | 254 | 3.0 | 3.0 | 0.00 | 0.02 | 0.02 | 72 | 1004.9 |
| 20260504224635 | 55 | 263 | 3.0 | 3.0 | 0.00 | 0.02 | 0.02 | 72 | 1004.6 |
| 20260504224132 | 55 | 258 | 3.0 | 3.0 | 0.00 | 0.02 | 0.02 | 72 | 1004.8 |
| 20260504223629 | 55 | 226 | 3.0 | 3.0 | 0.00 | 0.02 | 0.02 | 72 | 1004.8 |
| 20260504223125 | 55 | 201 | 1.0 | 2.0 | 0.00 | 0.02 | 0.02 | 73 | 1004.6 |
| 20260504222622 | 55 | 199 | 3.0 | 5.0 | 0.00 | 0.02 | 0.02 | 73 | 1004.7 |
| 20260504222120 | 55 | 236 | 5.0 | 6.0 | 0.00 | 0.02 | 0.02 | 73 | 1004.6 |
| 20260504221616 | 56 | 278 | 5.0 | 6.0 | 0.00 | 0.02 | 0.02 | 72 | 1004.7 |
| 20260504221114 | 55 | 220 | 4.0 | 5.0 | 0.00 | 0.02 | 0.02 | 73 | 1004.8 |
| 20260504220610 | 55 | 303 | 3.0 | 5.0 | 0.00 | 0.02 | 0.02 | 73 | 1005.0 |
| 20260504220108 | 55 | 223 | 3.0 | 3.0 | 0.00 | 0.02 | 0.02 | 73 | 1004.6 |
| 20260504215603 | 56 | 266 | 4.0 | 7.0 | 0.00 | 0.02 | 0.02 | 72 | 1004.7 |
| 20260504215101 | 55 | 232 | 4.0 | 5.0 | 0.00 | 0.02 | 0.02 | 71 | 1004.8 |
| 20260504214557 | 55 | 267 | 4.0 | 6.0 | 0.00 | 0.02 | 0.02 | 73 | 1004.6 |
| 20260504214053 | 55 | 275 | 5.0 | 6.0 | 0.00 | 0.02 | 0.02 | 72 | 1004.7 |
| 20260504213550 | 56 | 234 | 8.0 | 9.0 | 0.00 | 0.02 | 0.02 | 71 | 1004.8 |
| 20260504213047 | 57 | 244 | 7.0 | 10.0 | 0.00 | 0.02 | 0.02 | 71 | 1004.5 |
| 20260504212543 | 57 | 280 | 5.0 | 8.0 | 0.00 | 0.02 | 0.02 | 71 | 1004.7 |
| 20260504212040 | 55 | 213 | 1.0 | 3.0 | 0.00 | 0.02 | 0.02 | 74 | 1004.5 |
| 20260504211537 | 55 | 217 | 6.0 | 9.0 | 0.00 | 0.02 | 0.02 | 73 | 1004.6 |
| 20260504211034 | 55 | 272 | 10.0 | 13.0 | 0.00 | 0.02 | 0.02 | 72 | 1004.7 |
| 20260504210531 | 55 | 261 | 6.0 | 8.0 | 0.00 | 0.02 | 0.02 | 73 | 1004.2 |
| 20260504210028 | 55 | 290 | 7.0 | 8.0 | 0.00 | 0.02 | 0.02 | 73 | 1004.2 |
| 20260504205526 | 54 | 243 | 4.0 | 5.0 | 0.00 | 0.02 | 0.02 | 74 | 1004.5 |
| 20260504205023 | 54 | 265 | 5.0 | 5.0 | 0.00 | 0.02 | 0.02 | 74 | 1004.6 |
| 20260504204521 | 54 | 233 | 7.0 | 9.0 | 0.00 | 0.02 | 0.02 | 74 | 1004.4 |
| 20260504204020 | 54 | 241 | 7.0 | 9.0 | 0.00 | 0.02 | 0.02 | 74 | 1004.7 |
| 20260504203518 | 54 | 260 | 10.0 | 11.0 | 0.00 | 0.02 | 0.02 | 74 | 1004.6 |
| 20260504203015 | 54 | 301 | 7.0 | 11.0 | 0.00 | 0.02 | 0.02 | 74 | 1004.2 |
| 20260504202510 | 55 | 239 | 11.0 | 15.0 | 0.00 | 0.02 | 0.02 | 73 | 1004.0 |
| 20260504202007 | 54 | 260 | 9.0 | 11.0 | 0.00 | 0.02 | 0.02 | 73 | 1004.0 |
| 20260504201504 | 54 | 265 | 6.0 | 7.0 | 0.00 | 0.02 | 0.02 | 74 | 1004.2 |
| 20260504201002 | 54 | 245 | 9.0 | 9.0 | 0.00 | 0.02 | 0.02 | 74 | 1004.2 |
| 20260504200458 | 55 | 287 | 10.0 | 13.0 | 0.00 | 0.02 | 0.02 | 72 | 1004.4 |
| 20260504195955 | 54 | 228 | 7.0 | 8.0 | 0.00 | 0.02 | 0.02 | 74 | 1004.1 |
| 20260504195451 | 53 | 171 | 4.0 | 6.0 | 0.00 | 0.02 | 0.02 | 75 | 1004.5 |
| 20260504194948 | 53 | 248 | 8.0 | 10.0 | 0.00 | 0.02 | 0.02 | 74 | 1004.4 |
| 20260504194444 | 53 | 259 | 11.0 | 14.0 | 0.00 | 0.02 | 0.02 | 74 | 1003.9 |
| 20260504193940 | 54 | 281 | 11.0 | 15.0 | 0.00 | 0.02 | 0.02 | 72 | 1004.1 |
| 20260504193437 | 54 | 258 | 6.0 | 11.0 | 0.00 | 0.02 | 0.02 | 74 | 1004.0 |
| 20260504192936 | 53 | 306 | 17.0 | 21.0 | 0.00 | 0.02 | 0.02 | 74 | 1004.2 |
| 20260504192432 | 54 | 304 | 9.0 | 13.0 | 0.00 | 0.02 | 0.02 | 74 | 1004.2 |
| 20260504191932 | 54 | 245 | 12.0 | 16.0 | 0.00 | 0.02 | 0.02 | 74 | 1003.9 |
| 20260504191429 | 53 | 242 | 11.0 | 20.0 | 0.00 | 0.02 | 0.02 | 75 | 1004.1 |
| 20260504190924 | 53 | 284 | 13.0 | 16.0 | 0.00 | 0.02 | 0.02 | 73 | 1003.9 |
| 20260504190420 | 54 | 281 | 9.0 | 11.0 | 0.00 | 0.02 | 0.02 | 75 | 1004.1 |
| 20260504185917 | 53 | 237 | 7.0 | 10.0 | 0.00 | 0.02 | 0.02 | 77 | 1004.2 |
| 20260504185414 | 53 | 228 | 10.0 | 14.0 | 0.00 | 0.02 | 0.02 | 77 | 1004.0 |
| 20260504184910 | 53 | 293 | 5.0 | 7.0 | 0.00 | 0.02 | 0.02 | 79 | 1004.0 |
| 20260504184406 | 52 | 256 | 5.0 | 7.0 | 0.00 | 0.02 | 0.02 | 78 | 1004.1 |
| 20260504183902 | 52 | 271 | 10.0 | 13.0 | 0.00 | 0.02 | 0.02 | 78 | 1004.1 |
| 20260504183400 | 52 | 262 | 12.0 | 20.0 | 0.00 | 0.02 | 0.02 | 78 | 1004.1 |